This is the latest recevied weather packets stored in our database for station/object OK2ZAW-19. If no packets are shown the sender has not sent any weather packets the latest 10 day(s).
| Time | Temp. | Humidity | Pressure | Rain* | Wind** | Luminosity | Snow |
|---|---|---|---|---|---|---|---|
| 1777638774 | 19.44° C | 37% | 1027.6 hPa | - | - | 337 W/m² | - |
| 1777638462 | 18.89° C | 38% | 1027.6 hPa | - | - | 337 W/m² | - |
| 1777638151 | 18.33° C | 38% | 1027.7 hPa | - | - | 337 W/m² | - |
| 1777637840 | 18.33° C | 38% | 1027.8 hPa | - | - | 337 W/m² | - |
| 1777637528 | 18.33° C | 37% | 1027.7 hPa | - | - | 337 W/m² | - |
| 1777637217 | 18.33° C | 39% | 1027.7 hPa | - | - | 337 W/m² | - |
| 1777636906 | 18.33° C | 39% | 1027.7 hPa | - | - | 337 W/m² | - |
| 1777635972 | 17.78° C | 39% | 1027.9 hPa | - | - | 337 W/m² | - |
| 1777635661 | 17.78° C | 38% | 1028 hPa | - | - | 337 W/m² | - |
| 1777635350 | 17.78° C | 39% | 1027.9 hPa | - | - | 337 W/m² | - |
| 1777634727 | 17.78° C | 38% | 1027.8 hPa | - | - | 337 W/m² | - |
| 1777634416 | 17.78° C | 39% | 1027.9 hPa | - | - | 337 W/m² | - |
| 1777634105 | 17.22° C | 39% | 1028 hPa | - | - | 337 W/m² | - |
| 1777633482 | 17.22° C | 40% | 1028 hPa | - | - | 338 W/m² | - |
| 1777633171 | 17.22° C | 40% | 1028.1 hPa | - | - | 337 W/m² | - |
| 1777632860 | 17.22° C | 40% | 1028.1 hPa | - | - | 337 W/m² | - |
| 1777632549 | 17.22° C | 41% | 1028.2 hPa | - | - | 337 W/m² | - |
| 1777632238 | 17.22° C | 41% | 1028.2 hPa | - | - | 337 W/m² | - |
| 1777631926 | 16.67° C | 42% | 1028.2 hPa | - | - | 337 W/m² | - |
| 1777631615 | 16.67° C | 40% | 1028.3 hPa | - | - | 337 W/m² | - |
| 1777630993 | 16.67° C | 44% | 1028.4 hPa | - | - | 337 W/m² | - |
| 1777630371 | 16.11° C | 44% | 1028.2 hPa | - | - | 337 W/m² | - |
| 1777630060 | 15.56° C | 47% | 1028.3 hPa | - | - | 337 W/m² | - |
| 1777629749 | 15° C | 46% | 1028.3 hPa | - | - | 337 W/m² | - |
| 1777629438 | 15° C | 48% | 1028.2 hPa | - | - | 337 W/m² | - |
* Rain since midnight (hover to see other rain measurements)
** Current wind speed in m/s (hover to see current wind gust speed)